SCP
0 0 0 0 0 0 0 0 0 0 0 0 0 0 0 0 0 0 0 0 0 0 0 0 0 0 0 0 0 0 0 0 0 0 0 0 0 0 0 0 0 0 -0
0 0 0 0 0 0 0 0 0 0 0 0 0 0 0 0 0 0 0 0 0 0 0 0 0 0 0 0 0 0 0 0 0 0 0 0 0 0 0 0 0 -0 0
0 0 0 0 0 0 0 0 0 0 0 0 0 0 0 0 0 0 0 0 0 0 0 0 0 0 0 -0 0 0 0 0 0 0 0 0 0 0 0 0 0 0 -0
0 0 0 0 0 0 0 0 0 0 0 0 0 0 0 0 0 0 0 0 0 0 0 0 0 0 0 0 0 0 0 0 0 0 0 0 0 0 0 0 0 0 -0
0 0 0 0 0 0 0 0 0 0 0 0 0 0 0 0 0 0 0 0 0 0 0 0 0 0 0 0 0 0 0 0 0 0 0 0 0 0 0 0 0 0 -0
0 0 0 0 0 0 0 0 0 0 0 0 0 0 0 0 0 0 0 0 0 0 0 0 0 0 0 0 0 0 0 0 0 0 0 0 0 0 0 0 0 0 -0
0 0 0 0 0 0 0 0 0 0 0 0 0 0 0 0 0 0 0 0 0 0 0 0 0 0 0 0 0 0 0 0 0 0 0 0 0 0 0 0 0 0 0
0 0 0 0 0 0 0 0 0 0 0 0 0 0 0 0 0 0 0 0 0 0 0 0 0 0 0 0 0 0 0 0 0 0 0 0 0 0 0 0 0 0 0
1 1 0 0 0 0 0 0 0 0 0 0 0 0 0 0 0 0 0 0 0 0 0 0 0 0 0 0 0 0 0 0 0 0 0 0 0 0 0 0 0 0 0
1 1 1 0 0 0 0 0 0 0 0 0 0 0 0 0 0 0 0 0 0 0 0 0 0 0 0 0 0 0 0 0 0 0 0 0 0 0 0 0 0 0 0
1 1 1 1 1 1 1 0 0 0 0 0 0 0 0 0 0 0 0 0 0 0 0 0 0 0 0 0 0 0 0 0 0 0 0 0 0 0 0 0 0 0 0
0 1 1 1 1 1 1 0 0 0 0 0 0 0 0 0 0 0 0 0 0 0 0 0 0 0 0 0 0 0 0 0 0 0 0 0 0 0 0 0 0 0 -0
1 1 1 1 1 1 1 1 0 0 0 0 0 0 0 0 0 0 0 0 0 0 0 0 0 0 0 0 0 0 0 0 0 0 0 0 0 0 0 0 0 0 -0
1 1 1 1 1 1 1 1 1 0 0 0 0 0 0 0 0 0 0 0 0 0 0 0 0 0 0 0 0 0 0 0 0 0 0 0 0 0 0 0 0 0 0
1 1 1 1 1 1 1 0 0 0 0 0 0 0 0 0 0 0 0 0 0 0 0 0 0 0 0 0 0 0 0 0 0 0 0 0 0 0 0 0 0 0 0
1 1 1 1 1 1 0 0 0 0 0 0 0 0 0 0 0 0 0 0 0 0 0 0 0 0 0 0 0 0 0 0 0 0 0 0 0 0 0 0 0 0 -0
1 1 1 1 1 1 0 0 0 0 0 0 0 0 0 0 0 0 0 0 0 0 0 0 0 0 0 0 0 0 0 0 0 0 0 0 0 0 0 0 0 0 0
1 1 1 1 1 0 0 0 0 0 0 0 0 0 0 0 0 0 0 0 0 0 0 0 0 0 0 0 0 0 0 0 0 0 0 0 0 0 0 0 0 0 0
1 2 1 1 1 0 0 0 0 0 0 0 0 0 0 0 0 0 0 0 0 0 0 0 0 0 0 0 0 0 0 0 0 0 0 0 0 0 0 0 0 0 0
2 1 1 1 1 0 0 0 0 0 0 0 0 0 0 0 0 0 0 0 0 0 0 0 0 0 0 0 0 0 0 0 0 0 0 0 0 0 0 0 0 0 0
1 1 1 1 1 0 0 0 0 0 0 0 0 0 0 0 0 0 0 0 0 0 0 0 0 0 0 0 0 0 0 0 0 0 0 0 0 0 0 0 0 0 0
2 1 1 1 0 0 0 0 0 0 0 0 0 0 0 0 0 0 0 0 0 0 0 0 0 0 0 0 0 0 0 0 0 0 0 0 0 0 0 0 0 0 0
1 1 0 0 0 0 0 0 0 0 0 0 0 0 0 0 0 0 0 0 0 0 0 0 0 0 0 0 0 0 0 0 0 0 0 0 0 0 0 0 0 0 0
1 0 0 0 0 0 0 0 0 0 0 0 0 0 0 0 0 0 0 0 0 0 0 0 0 0 0 0 0 0 0 0 0 0 0 0 0 0 0 0 0 0 0
0 0 0 0 0 0 0 0 0 0 0 0 0 0 0 0 0 0 0 0 0 0 0 0 0 0 0 0 0 0 0 0 0 0 0 0 0 0 0 0 0 0 0
0 0 0 0 0 0 0 0 0 0 0 0 0 0 0 0 0 0 0 0 0 0 0 0 0 0 0 0 0 0 0 0 0 0 0 0 0 0 0 0 0 0 0
Wind_Speed_500mb
50 49 45 43 40 38 35 34 37 39 39 38 37 37 34 33 36 35 32 37 31 29 30 29 25 17 20 21 21 19 27 30 32 32 33 33 34 32 29 27 18 21 18
53 52 48 45 39 35 28 27 32 34 34 34 31 29 29 30 33 36 36 39 39 36 33 33 30 29 27 24 20 20 27 31 31 30 33 37 34 36 33 32 22 19 19
56 53 48 45 35 29 28 28 31 33 32 31 29 25 26 24 25 28 28 32 37 37 36 33 31 32 33 27 25 22 24 32 33 31 31 32 33 37 32 33 30 25 19
59 52 50 44 32 29 33 33 33 35 32 30 26 24 23 22 21 25 25 28 30 32 32 35 33 34 36 34 26 26 25 30 35 34 32 34 31 31 34 32 28 24 20
62 51 52 43 34 32 34 38 37 38 34 31 26 25 25 24 24 28 31 30 31 33 30 34 36 38 40 38 31 25 24 28 34 37 34 32 29 24 27 27 25 23 16
61 55 52 43 39 36 36 40 41 39 38 30 27 26 27 27 30 34 33 39 38 36 34 36 38 41 43 41 37 29 27 25 33 37 38 35 28 26 26 27 29 24 22
63 66 51 44 44 41 38 41 43 40 41 32 31 28 29 34 36 35 38 40 38 37 39 36 41 35 32 35 43 34 26 32 29 37 38 36 31 26 26 32 34 28 31
87 61 54 46 47 45 43 43 43 42 41 36 33 26 30 30 31 33 32 35 36 42 43 39 34 32 30 33 36 37 34 33 28 34 38 37 35 29 26 31 33 38 31
79 68 49 50 53 47 48 43 42 43 39 34 32 28 13 15 12 17 20 25 27 24 28 32 35 34 33 33 34 39 35 34 30 31 38 37 36 33 27 32 33 36 34
73 56 50 56 56 52 52 43 39 41 40 35 36 39 45 33 16 10 15 18 17 29 30 31 27 30 31 29 34 36 34 33 32 31 35 36 36 33 29 32 31 36 31
80 58 52 61 62 55 51 45 42 41 42 40 39 38 44 42 44 40 31 30 29 29 30 27 28 28 25 23 26 28 29 32 35 31 35 33 36 32 29 29 29 30 22
62 47 58 61 58 55 50 46 41 40 40 39 35 39 39 40 40 36 37 34 29 26 23 21 22 21 22 22 25 29 27 32 32 30 32 35 33 33 30 30 31 27 29
57 62 63 58 54 51 49 46 42 42 39 37 38 36 35 36 36 33 29 27 24 22 20 17 17 16 18 18 22 29 29 30 31 31 32 35 32 33 31 33 33 31 28
65 65 57 51 46 42 44 42 41 38 35 32 33 34 34 34 34 25 27 24 21 20 22 21 18 14 18 22 22 22 29 32 27 32 34 36 34 33 31 31 28 28 22
67 66 51 45 40 41 39 42 42 42 38 34 33 33 29 27 26 26 26 23 22 19 20 18 15 13 16 19 21 22 30 34 40 38 36 36 33 30 32 33 29 29 32
70 64 51 44 43 41 43 39 44 39 35 35 34 32 29 26 27 26 25 24 24 22 20 12 13 15 13 19 17 15 22 25 31 36 35 35 32 32 32 30 31 29 29
59 49 52 45 46 48 47 39 40 35 36 31 33 31 27 27 26 24 25 26 24 23 23 18 16 15 14 15 16 17 18 24 30 35 34 31 29 27 31 34 32 27 31
46 48 50 48 51 54 43 45 37 40 40 35 32 29 29 26 24 22 23 24 23 24 24 20 17 16 15 18 17 21 21 25 30 33 33 30 31 38 40 31 25 31 38
52 53 52 51 56 55 41 41 42 41 36 31 26 27 25 24 22 22 23 23 21 22 25 23 19 19 22 23 26 20 24 28 28 31 31 36 37 35 28 27 30 38 35
57 55 54 52 58 47 46 45 39 40 32 28 30 29 22 19 20 22 23 23 23 24 27 27 24 23 28 28 28 22 27 28 28 34 34 39 34 29 26 29 34 38 34
56 53 51 55 53 49 49 46 43 34 28 30 33 30 23 20 21 24 25 26 26 25 30 33 31 30 35 35 33 28 28 29 30 33 39 40 34 30 30 28 39 36 31
56 52 56 56 51 53 46 43 34 27 29 28 29 27 25 24 24 24 26 28 26 24 31 37 33 35 37 37 35 32 32 33 35 33 39 39 37 32 35 38 37 38 29
51 56 56 57 56 50 44 38 35 26 25 24 23 24 24 25 25 24 26 28 32 26 22 27 26 33 35 36 32 34 34 38 36 40 36 38 34 30 34 36 38 39 29
61 62 62 59 54 48 43 43 35 24 26 23 23 23 23 22 22 24 26 25 22 27 30 28 21 20 23 19 24 27 30 33 32 42 40 39 37 36 34 37 39 36 29
58 64 64 57 49 46 45 43 35 31 29 28 26 25 23 20 19 20 20 23 24 26 28 24 21 20 24 21 24 30 32 39 40 44 40 37 36 39 37 41 34 39 34
69 64 56 49 43 43 44 39 33 30 31 30 28 25 22 19 17 15 18 19 29 27 31 25 27 29 31 31 29 27 25 36 43 41 45 39 46 43 36 41 36 41 34
Wind_Direction_500mb
252 258 263 267 274 275 276 276 280 282 284 284 281 278 270 264 258 253 248 243 245 257 268 274 261 254 271 300 309 258 237 235 235 233 229 227 227 233 234 230 232 236 239
259 263 266 270 271 273 271 269 272 277 279 276 271 268 269 269 257 246 248 241 242 256 265 279 263 270 264 271 284 275 241 234 232 229 228 228 230 235 238 224 229 245 251
261 265 270 269 270 267 263 259 263 269 273 274 270 261 267 274 251 236 247 235 241 259 262 271 270 281 269 266 277 275 251 237 231 228 227 231 231 235 234 231 238 241 255
260 260 267 269 266 262 264 266 263 266 267 269 262 255 257 261 242 238 237 237 249 269 271 268 274 279 280 271 278 270 262 238 233 233 229 234 236 232 222 228 234 232 244
263 263 267 271 267 266 269 272 268 268 265 265 255 241 242 250 248 244 237 246 260 270 273 272 271 279 276 269 267 266 263 242 233 230 232 234 235 231 220 230 229 230 217
259 260 264 270 269 268 274 277 274 270 265 262 251 237 240 248 251 247 249 252 259 262 272 278 272 276 272 258 255 256 259 252 234 228 228 232 233 223 220 232 235 225 204
267 272 266 269 271 273 280 280 271 268 263 255 251 246 252 257 255 253 250 256 262 269 276 278 281 273 261 257 252 249 255 265 242 228 226 229 229 226 218 226 232 224 218
247 252 262 271 274 274 280 278 271 266 256 247 245 252 263 267 260 253 253 265 267 271 276 279 276 277 266 256 248 247 251 256 248 228 224 226 227 227 222 225 222 221 226
251 259 266 272 273 277 279 271 268 263 258 248 250 236 229 229 225 249 256 276 272 279 276 272 277 279 271 260 250 241 249 248 241 225 227 223 224 227 225 222 226 224 227
253 261 266 270 272 276 268 259 258 255 248 238 240 235 238 251 264 259 261 271 264 295 284 274 273 275 271 260 246 239 234 241 236 227 223 223 220 222 224 221 228 221 225
254 255 259 266 270 269 262 249 246 247 241 240 237 235 238 244 253 254 270 268 273 289 286 277 267 268 263 249 233 233 231 234 229 228 222 223 216 217 224 219 225 212 197
244 246 255 263 268 261 249 243 244 240 237 241 231 236 244 242 246 248 256 266 273 281 282 276 270 266 254 243 230 227 232 228 219 224 213 220 212 216 221 212 214 210 203
239 250 254 263 266 256 237 235 234 234 233 222 220 231 238 242 249 258 254 254 266 277 274 277 280 261 247 242 234 228 221 223 224 216 211 214 211 213 216 209 205 208 216
243 245 255 259 259 242 230 231 232 232 211 215 216 227 242 237 245 245 250 251 258 259 268 282 280 258 249 247 240 233 227 222 214 213 208 207 206 213 207 201 201 202 201
237 244 249 254 246 227 226 232 237 211 212 214 219 229 239 233 232 247 250 251 247 249 276 284 256 257 246 233 240 245 237 235 228 210 203 203 205 207 196 192 195 191 186
237 243 242 245 229 223 226 230 210 203 210 212 221 227 231 231 240 245 245 241 244 250 257 271 257 255 250 235 241 226 202 204 190 195 194 199 204 196 190 192 196 188 182
236 238 238 237 223 222 224 216 203 208 201 210 216 229 229 237 239 238 235 236 236 244 252 254 254 250 245 223 210 202 187 194 191 189 191 200 197 204 191 187 189 196 179
236 235 231 225 221 223 220 202 203 205 201 208 222 227 230 226 232 224 228 230 240 245 241 245 249 235 217 199 193 190 189 187 185 187 189 186 178 184 187 188 190 174 182
225 224 219 217 219 220 207 198 210 205 206 212 226 223 221 223 218 224 228 229 240 233 239 240 243 217 185 189 181 172 183 181 178 174 171 165 166 176 190 189 179 180 186
218 211 212 214 216 214 192 201 201 198 203 222 219 205 211 218 223 225 226 233 234 231 238 229 224 213 189 187 190 185 182 176 175 172 166 163 165 180 189 178 174 182 187
208 209 210 205 207 192 190 197 198 199 212 213 206 207 214 225 230 226 230 240 238 231 235 226 219 203 190 186 191 191 184 176 171 171 170 170 170 169 180 187 183 184 186
204 208 201 199 184 190 194 193 196 194 200 204 204 208 222 235 238 234 236 237 239 241 236 220 214 202 187 194 192 188 185 176 161 167 172 172 174 177 181 182 189 186 189
203 196 195 182 186 188 186 189 179 181 183 190 201 217 233 241 237 239 239 242 254 223 219 227 226 201 201 197 192 191 189 186 175 178 179 171 180 189 196 194 193 192 194
195 190 179 181 181 181 179 179 182 193 203 214 222 229 236 234 234 237 242 244 219 224 213 210 209 215 216 210 194 190 195 193 179 177 179 185 193 194 196 205 191 196 207
184 178 173 171 177 178 180 185 189 203 213 220 226 233 230 233 239 237 227 213 215 195 187 187 188 198 210 216 205 193 194 189 175 180 184 184 185 185 187 210 197 207 208
173 165 167 173 175 182 182 191 204 217 219 225 231 226 228 233 215 213 201 206 197 191 190 195 195 194 200 203 201 207 212 199 189 183 189 189 182 185 197 203 211 222 218
Wind_Speed_850mb
50 49 45 43 40 38 35 34 37 39 39 38 37 37 34 33 36 35 32 37 31 29 30 29 25 17 20 21 21 19 27 30 32 32 33 33 34 32 29 27 18 21 18
53 52 48 45 39 35 28 27 32 34 34 34 31 29 29 30 33 36 36 39 39 36 33 33 30 29 27 24 20 20 27 31 31 30 33 37 34 36 33 32 22 19 19
56 53 48 45 35 29 28 28 31 33 32 31 29 25 26 24 25 28 28 32 37 37 36 33 31 32 33 27 25 22 24 32 33 31 31 32 33 37 32 33 30 25 19
59 52 50 44 32 29 33 33 33 35 32 30 26 24 23 22 21 25 25 28 30 32 32 35 33 34 36 34 26 26 25 30 35 34 32 34 31 31 34 32 28 24 20
62 51 52 43 34 32 34 38 37 38 34 31 26 25 25 24 24 28 31 30 31 33 30 34 36 38 40 38 31 25 24 28 34 37 34 32 29 24 27 27 25 23 16
61 55 52 43 39 36 36 40 41 39 38 30 27 26 27 27 30 34 33 39 38 36 34 36 38 41 43 41 37 29 27 25 33 37 38 35 28 26 26 27 29 24 22
63 66 51 44 44 41 38 41 43 40 41 32 31 28 29 34 36 35 38 40 38 37 39 36 41 35 32 35 43 34 26 32 29 37 38 36 31 26 26 32 34 28 31
87 61 54 46 47 45 43 43 43 42 41 36 33 26 30 30 31 33 32 35 36 42 43 39 34 32 30 33 36 37 34 33 28 34 38 37 35 29 26 31 33 38 31
79 68 49 50 53 47 48 43 42 43 39 34 32 28 13 15 12 17 20 25 27 24 28 32 35 34 33 33 34 39 35 34 30 31 38 37 36 33 27 32 33 36 34
73 56 50 56 56 52 52 43 39 41 40 35 36 39 45 33 16 10 15 18 17 29 30 31 27 30 31 29 34 36 34 33 32 31 35 36 36 33 29 32 31 36 31
80 58 52 61 62 55 51 45 42 41 42 40 39 38 44 42 44 40 31 30 29 29 30 27 28 28 25 23 26 28 29 32 35 31 35 33 36 32 29 29 29 30 22
62 47 58 61 58 55 50 46 41 40 40 39 35 39 39 40 40 36 37 34 29 26 23 21 22 21 22 22 25 29 27 32 32 30 32 35 33 33 30 30 31 27 29
57 62 63 58 54 51 49 46 42 42 39 37 38 36 35 36 36 33 29 27 24 22 20 17 17 16 18 18 22 29 29 30 31 31 32 35 32 33 31 33 33 31 28
65 65 57 51 46 42 44 42 41 38 35 32 33 34 34 34 34 25 27 24 21 20 22 21 18 14 18 22 22 22 29 32 27 32 34 36 34 33 31 31 28 28 22
67 66 51 45 40 41 39 42 42 42 38 34 33 33 29 27 26 26 26 23 22 19 20 18 15 13 16 19 21 22 30 34 40 38 36 36 33 30 32 33 29 29 32
70 64 51 44 43 41 43 39 44 39 35 35 34 32 29 26 27 26 25 24 24 22 20 12 13 15 13 19 17 15 22 25 31 36 35 35 32 32 32 30 31 29 29
59 49 52 45 46 48 47 39 40 35 36 31 33 31 27 27 26 24 25 26 24 23 23 18 16 15 14 15 16 17 18 24 30 35 34 31 29 27 31 34 32 27 31
46 48 50 48 51 54 43 45 37 40 40 35 32 29 29 26 24 22 23 24 23 24 24 20 17 16 15 18 17 21 21 25 30 33 33 30 31 38 40 31 25 31 38
52 53 52 51 56 55 41 41 42 41 36 31 26 27 25 24 22 22 23 23 21 22 25 23 19 19 22 23 26 20 24 28 28 31 31 36 37 35 28 27 30 38 35
57 55 54 52 58 47 46 45 39 40 32 28 30 29 22 19 20 22 23 23 23 24 27 27 24 23 28 28 28 22 27 28 28 34 34 39 34 29 26 29 34 38 34
56 53 51 55 53 49 49 46 43 34 28 30 33 30 23 20 21 24 25 26 26 25 30 33 31 30 35 35 33 28 28 29 30 33 39 40 34 30 30 28 39 36 31
56 52 56 56 51 53 46 43 34 27 29 28 29 27 25 24 24 24 26 28 26 24 31 37 33 35 37 37 35 32 32 33 35 33 39 39 37 32 35 38 37 38 29
51 56 56 57 56 50 44 38 35 26 25 24 23 24 24 25 25 24 26 28 32 26 22 27 26 33 35 36 32 34 34 38 36 40 36 38 34 30 34 36 38 39 29
61 62 62 59 54 48 43 43 35 24 26 23 23 23 23 22 22 24 26 25 22 27 30 28 21 20 23 19 24 27 30 33 32 42 40 39 37 36 34 37 39 36 29
58 64 64 57 49 46 45 43 35 31 29 28 26 25 23 20 19 20 20 23 24 26 28 24 21 20 24 21 24 30 32 39 40 44 40 37 36 39 37 41 34 39 34
69 64 56 49 43 43 44 39 33 30 31 30 28 25 22 19 17 15 18 19 29 27 31 25 27 29 31 31 29 27 25 36 43 41 45 39 46 43 36 41 36 41 34
Wind_Direction_850mb
252 258 263 267 274 275 276 276 280 282 284 284 281 278 270 264 258 253 248 243 245 257 268 274 261 254 271 300 309 258 237 235 235 233 229 227 227 233 234 230 232 236 239
259 263 266 270 271 273 271 269 272 277 279 276 271 268 269 269 257 246 248 241 242 256 265 279 263 270 264 271 284 275 241 234 232 229 228 228 230 235 238 224 229 245 251
261 265 270 269 270 267 263 259 263 269 273 274 270 261 267 274 251 236 247 235 241 259 262 271 270 281 269 266 277 275 251 237 231 228 227 231 231 235 234 231 238 241 255
260 260 267 269 266 262 264 266 263 266 267 269 262 255 257 261 242 238 237 237 249 269 271 268 274 279 280 271 278 270 262 238 233 233 229 234 236 232 222 228 234 232 244
263 263 267 271 267 266 269 272 268 268 265 265 255 241 242 250 248 244 237 246 260 270 273 272 271 279 276 269 267 266 263 242 233 230 232 234 235 231 220 230 229 230 217
259 260 264 270 269 268 274 277 274 270 265 262 251 237 240 248 251 247 249 252 259 262 272 278 272 276 272 258 255 256 259 252 234 228 228 232 233 223 220 232 235 225 204
267 272 266 269 271 273 280 280 271 268 263 255 251 246 252 257 255 253 250 256 262 269 276 278 281 273 261 257 252 249 255 265 242 228 226 229 229 226 218 226 232 224 218
247 252 262 271 274 274 280 278 271 266 256 247 245 252 263 267 260 253 253 265 267 271 276 279 276 277 266 256 248 247 251 256 248 228 224 226 227 227 222 225 222 221 226
251 259 266 272 273 277 279 271 268 263 258 248 250 236 229 229 225 249 256 276 272 279 276 272 277 279 271 260 250 241 249 248 241 225 227 223 224 227 225 222 226 224 227
253 261 266 270 272 276 268 259 258 255 248 238 240 235 238 251 264 259 261 271 264 295 284 274 273 275 271 260 246 239 234 241 236 227 223 223 220 222 224 221 228 221 225
254 255 259 266 270 269 262 249 246 247 241 240 237 235 238 244 253 254 270 268 273 289 286 277 267 268 263 249 233 233 231 234 229 228 222 223 216 217 224 219 225 212 197
244 246 255 263 268 261 249 243 244 240 237 241 231 236 244 242 246 248 256 266 273 281 282 276 270 266 254 243 230 227 232 228 219 224 213 220 212 216 221 212 214 210 203
239 250 254 263 266 256 237 235 234 234 233 222 220 231 238 242 249 258 254 254 266 277 274 277 280 261 247 242 234 228 221 223 224 216 211 214 211 213 216 209 205 208 216
243 245 255 259 259 242 230 231 232 232 211 215 216 227 242 237 245 245 250 251 258 259 268 282 280 258 249 247 240 233 227 222 214 213 208 207 206 213 207 201 201 202 201
237 244 249 254 246 227 226 232 237 211 212 214 219 229 239 233 232 247 250 251 247 249 276 284 256 257 246 233 240 245 237 235 228 210 203 203 205 207 196 192 195 191 186
237 243 242 245 229 223 226 230 210 203 210 212 221 227 231 231 240 245 245 241 244 250 257 271 257 255 250 235 241 226 202 204 190 195 194 199 204 196 190 192 196 188 182
236 238 238 237 223 222 224 216 203 208 201 210 216 229 229 237 239 238 235 236 236 244 252 254 254 250 245 223 210 202 187 194 191 189 191 200 197 204 191 187 189 196 179
236 235 231 225 221 223 220 202 203 205 201 208 222 227 230 226 232 224 228 230 240 245 241 245 249 235 217 199 193 190 189 187 185 187 189 186 178 184 187 188 190 174 182
225 224 219 217 219 220 207 198 210 205 206 212 226 223 221 223 218 224 228 229 240 233 239 240 243 217 185 189 181 172 183 181 178 174 171 165 166 176 190 189 179 180 186
218 211 212 214 216 214 192 201 201 198 203 222 219 205 211 218 223 225 226 233 234 231 238 229 224 213 189 187 190 185 182 176 175 172 166 163 165 180 189 178 174 182 187
208 209 210 205 207 192 190 197 198 199 212 213 206 207 214 225 230 226 230 240 238 231 235 226 219 203 190 186 191 191 184 176 171 171 170 170 170 169 180 187 183 184 186
204 208 201 199 184 190 194 193 196 194 200 204 204 208 222 235 238 234 236 237 239 241 236 220 214 202 187 194 192 188 185 176 161 167 172 172 174 177 181 182 189 186 189
203 196 195 182 186 188 186 189 179 181 183 190 201 217 233 241 237 239 239 242 254 223 219 227 226 201 201 197 192 191 189 186 175 178 179 171 180 189 196 194 193 192 194
195 190 179 181 181 181 179 179 182 193 203 214 222 229 236 234 234 237 242 244 219 224 213 210 209 215 216 210 194 190 195 193 179 177 179 185 193 194 196 205 191 196 207
184 178 173 171 177 178 180 185 189 203 213 220 226 233 230 233 239 237 227 213 215 195 187 187 188 198 210 216 205 193 194 189 175 180 184 184 185 185 187 210 197 207 208
173 165 167 173 175 182 182 191 204 217 219 225 231 226 228 233 215 213 201 206 197 191 190 195 195 194 200 203 201 207 212 199 189 183 189 189 182 185 197 203 211 222 218